Regional Weather Roundup
Issued by NWS

Home | Current Version | Previous Version | Graphics & Text | Print | Product List | Glossary On
Versions: 1 2 3 4 5 6 7 8 9 10 11 12 13 14 15 16 17 18 19 20 21 22 23 24 25 26 27 28 29 30 31 32 33 34 35 36 37 38 39 40 41 42 43 44 45 46 47 48 49 50
210
ASUS45 KSLC 230410
RWRUT

UTAH REGIONAL WEATHER ROUNDUP
NATIONAL WEATHER SERVICE SALT LAKE CITY UT
1000 PM MDT FRI JUL 22 2016

UTZ001>011-023>025-230500-

NORTHERN UTAH

CITY           SKY/WX    TMP DP  RH WIND       PRES   REMARKS
BRIGHAM CITY     N/A     84  24  11 NW7       30.05R
HILL AFB       CLEAR     84  40  20 NW8       30.08R
LOGAN          CLEAR     74  37  26 NW10      30.07R
OGDEN          CLEAR     83  38  20 NW14      30.04R
PROVO AIRPORT  PTCLDY    77  57  50 CALM      30.05R
SALT LAKE CITY PTCLDY    85  36  17 SW7       30.02R
VERNAL         CLOUDY    76  52  43 W5        30.18R
WENDOVER       CLEAR     90  27  10 NW17      30.04R
HEBER CITY     PTCLDY    68  50  52 CALM      30.15R

$$

UTZ012>022-026-027-230500-

SOUTHERN/CENTRAL UTAH

CITY           SKY/WX    TMP DP  RH WIND       PRES   REMARKS
BLANDING       CLOUDY    74  49  40 NE14      30.32R
BRYCE CANYON   MOCLDY    65  45  48 S3        30.39R
CEDAR CITY     CLEAR     83  33  16 S10       30.18R
DELTA          CLEAR     88  30  12 N10       30.04R
MILFORD        CLEAR     88  32  13 SW14      30.08R
MOAB/CYNLANDS  MOCLDY    83  47  28 S6        30.11R
PRICE          PTCLDY    77  46  33 NE14      30.21R
ST GEORGE      PTCLDY   100  39  12 S7        29.94R HX  95
KANAB          PTCLDY    82  48  30 NE3       30.16R

$$

REGIONAL REPORTS     COLORADO/ARIZONA

CITY           SKY/WX    TMP DP  RH WIND       PRES   REMARKS
CRAIG, CO      CLOUDY    68  45  43 S14       30.27R
GRAND JUNCTION CLOUDY    72  59  63 SE12      30.20R
RIFLE          CLOUDY    70  54  56 NE8       30.25R
MONTROSE       CLOUDY    76  47  35 W8        30.34R
CORTEZ         CLOUDY    75  46  35 NE16G29   30.29S
PAGE, AZ       CLOUDY    88  48  25 S18G24    30.09R
GRAND CANYON   CLOUDY    67  55  65 E3        30.36R
KINGMAN        CLEAR     89  34  14 S10       30.02R
FLAGSTAFF      CLOUDY    66  50  56 N7        30.40R

$$

REGIONAL REPORTS    NEVADA/IDAHO/WYOMING

CITY           SKY/WX    TMP DP  RH WIND       PRES   REMARKS
LAS VEGAS, NV  PTCLDY   103  25   6 SW8       29.82R HX  95
ELY            CLEAR     76  23  14 VRB7      30.23R
ELKO           CLEAR     74  15  10 CALM      30.17R
POCATELLO, ID  CLEAR     72  32  23 SW14      30.10R
BURLEY         CLEAR     73  39  29 W9        30.09R
EVANSTON, WY   CLEAR     69  27  20 W12       30.27R
ROCK SPRINGS   CLOUDY    73  39  29 SW15      30.23R
KEMMERER         N/A    N/A N/A N/A W10       30.28R

$$




USA.gov is the U.S. government's official web portal to all federal, state and local government web resources and services.